This is the latest recevied weather packets stored in our database for station/object IW2NIA-3. If no packets are shown the sender has not sent any weather packets the latest 10 day(s).
| Time | Temp. | Humidity | Pressure | Rain* | Wind** | Luminosity | Snow |
|---|---|---|---|---|---|---|---|
| 1777481318 | 21.11° C | 59% | 1014.2 hPa | 0 mm | - | - | - |
| 1777480412 | 21.11° C | 59% | 1014.2 hPa | 0 mm | - | - | - |
| 1777479527 | 21.67° C | 59% | 1014.2 hPa | 0 mm | - | - | - |
| 1777478619 | 21.67° C | 56% | 1014.3 hPa | 0 mm | - | - | - |
| 1777477715 | 22.22° C | 52% | 1014.3 hPa | 0 mm | - | - | - |
| 1777476810 | 22.22° C | 52% | 1014.4 hPa | 0 mm | - | - | - |
| 1777475926 | 22.22° C | 49% | 1014.5 hPa | 0 mm | - | - | - |
| 1777475014 | 22.22° C | 51% | 1014.6 hPa | 0 mm | - | - | - |
| 1777474128 | 22.78° C | 51% | 1014.7 hPa | 0 mm | - | - | - |
| 1777473222 | 22.22° C | 54% | 1014.8 hPa | 0 mm | - | - | - |
| 1777472322 | 22.22° C | 51% | 1014.9 hPa | 0 mm | - | - | - |
| 1777471417 | 22.22° C | 55% | 1014.9 hPa | 0 mm | - | - | - |
| 1777470508 | 22.22° C | 52% | 1015 hPa | 0 mm | - | - | - |
| 1777469625 | 21.67° C | 55% | 1015.3 hPa | 0 mm | - | - | - |
| 1777468715 | 21.67° C | 52% | 1015.3 hPa | 0 mm | - | - | - |
| 1777467828 | 21.67° C | 54% | 1015.5 hPa | 0 mm | - | - | - |
| 1777466920 | 21.67° C | 60% | 1015.7 hPa | 0 mm | - | - | - |
| 1777466011 | 20.56° C | 60% | 1015.8 hPa | 0 mm | - | - | - |
| 1777465127 | 20.56° C | 62% | 1015.9 hPa | 0 mm | - | - | - |
| 1777464221 | 20.56° C | 61% | 1016 hPa | 0 mm | - | - | - |
| 1777463318 | 20.56° C | 62% | 1015.9 hPa | 0 mm | - | - | - |
| 1777462416 | 19.44° C | 65% | 1016.1 hPa | 0 mm | - | - | - |
| 1777461520 | 18.89° C | 66% | 1016.2 hPa | 0 mm | - | - | - |
| 1777460617 | 20° C | 68% | 1016.3 hPa | 0 mm | - | - | - |
| 1777459723 | 19.44° C | 68% | 1016.4 hPa | 0 mm | - | - | - |
* Rain latest hour (hover to see other rain measurements)
** Current wind speed in m/s (hover to see current wind gust speed)